Tracking 19827 objects as of 21-Aug-2019
HD Live streaming from Space Station
objects crossing your sky now

COSMOS 2251 DEB


COSMOS 2251 DEB is no longer on orbit


NORAD ID: 35894
Int'l Code: 1993-036AUH
Perigee: N/A
Apogee: N/A
Inclination: N/A
Period: N/A
Semi major axis: N/A
RCS: N/A
Launch date: June 16, 1993
Source: Commonwealth of Independent States (former USSR) (CIS)
Launch site: PLESETSK MISSILE AND SPACE COMPLEX (PKMTR)
Decay date: 2014-04-13

Note: This is SATELLITE DEBRIS
aabbcc
Your satellite tracking list
Your tracking list is empty




NASA's NSSDC Master Catalog

Two Line Element Set (TLE):
1 35894U 93036AUH 11351.01165606  .00026226  00000-0  16104-2 0  9998
2 35894 073.9709 109.2955 0143886 101.7863 262.8329 15.01669580125688
Source of the keplerian elements: AFSPC